FW6744 Weather Reports


time (UTC)temp
C
wind
direction
speed
KPH
gust
KPH
rain 1hr
cm
rain 24hr
cm
rain mn
cm
humidity
%
barometer
mb
20260901020216 26 30 0.0 0.0 0.00 0.00 0.00 80 1014.5
20260901015951 26 31 0.0 0.0 0.00 0.00 0.00 80 1014.5
20260901015214 27 31 0.0 0.0 0.00 0.00 0.00 80 1014.6
20260901014713 27 30 0.0 0.0 0.00 0.00 0.00 80 1014.5
20260901014435 27 30 0.0 0.0 0.00 0.00 0.00 80 1014.5
20260901013714 27 30 0.0 0.0 0.00 0.00 0.00 80 1014.5
20260901013208 27 30 0.0 0.0 0.00 0.00 0.00 80 1014.4
20260901012702 27 30 0.0 0.0 0.00 0.00 0.00 80 1014.5
20260901012156 27 31 0.0 0.0 0.00 0.00 0.00 80 1014.4
20260901011650 27 31 0.0 0.0 0.00 0.00 0.00 79 1014.3
20260901011144 27 30 0.0 0.0 0.00 0.00 0.00 79 1014.3
20260901010637 27 30 0.0 1.6 0.00 0.00 0.00 79 1014.3
20260901010132 27 30 0.0 1.6 0.00 0.00 0.00 78 1014.2
20260901005626 27 30 0.0 0.0 0.00 0.00 0.00 78 1014.2
20260901005119 27 30 0.0 0.0 0.00 0.00 0.00 78 1014.2
20260901004614 27 30 0.0 0.0 0.00 0.00 0.00 78 1014.2
20260901004107 27 30 0.0 0.0 0.00 0.00 0.00 78 1014.3
20260901003602 27 30 0.0 0.0 0.00 0.00 0.00 78 1014.3
20260901003056 27 30 0.0 0.0 0.00 0.00 0.00 78 1014.3
20260901002550 27 30 0.0 0.0 0.00 0.00 0.00 78 1014.2
20260901002044 27 30 0.0 0.0 0.00 0.00 0.00 77 1014.1
20260901001537 27 30 0.0 0.0 0.00 0.00 0.00 77 1014.1
20260901001251 27 30 0.0 0.0 0.00 0.00 0.00 77 1014.0
20260901000526 27 30 0.0 0.0 0.00 0.00 0.00 76 1013.9
20260901000020 27 30 0.0 0.0 0.00 0.00 0.00 76 1013.9
20260831235514 28 30 0.0 0.0 0.00 0.00 0.00 76 1013.8
20260831235008 28 30 0.0 0.0 0.00 0.00 0.00 75 1013.8
20260831234508 28 30 0.0 0.0 0.00 0.00 0.00 75 1013.9
20260831234005 28 30 0.0 0.0 0.00 0.00 0.00 74 1013.9
20260831233504 28 30 0.0 0.0 0.00 0.00 0.00 74 1013.9
20260831233006 28 30 0.0 0.0 0.00 0.00 0.00 73 1013.9
20260831232502 28 30 0.0 0.0 0.00 0.00 0.00 72 1013.9
20260831232004 28 30 0.0 0.0 0.00 0.00 0.00 72 1013.8
20260831231502 29 30 0.0 0.0 0.00 0.00 0.00 72 1013.8
20260831231000 29 30 0.0 0.0 0.00 0.00 0.00 71 1013.8
20260831230504 29 30 0.0 0.0 0.00 0.00 0.00 71 1013.7
20260831230232 30 30 0.0 0.0 0.00 0.00 0.00 70 1013.7
20260831225725 30 30 0.0 0.0 0.00 0.00 0.00 69 1013.7
20260831225222 30 30 0.0 0.0 0.00 0.00 0.00 67 1013.6
20260831224723 30 30 0.0 0.0 0.00 0.00 0.00 67 1013.7
20260831223959 30 30 0.0 0.0 0.00 0.00 0.00 67 1013.6
20260831223501 30 30 0.0 3.2 0.00 0.00 0.00 67 1013.7
20260831222957 31 30 0.0 3.2 0.00 0.00 0.00 66 1013.7
20260831222458 31 33 0.0 0.0 0.00 0.00 0.00 66 1013.8
20260831221956 31 32 0.0 0.0 0.00 0.00 0.00 66 1013.8
20260831221457 31 33 0.0 0.0 0.00 0.00 0.00 65 1013.8
20260831220958 31 33 0.0 0.0 0.00 0.00 0.00 64 1013.8
20260831220457 31 32 0.0 1.6 0.00 0.00 0.00 63 1013.8
20260831220434 31 33 0.0 1.6 0.00 0.00 0.00 61 1013.7
20260831215458 32 32 0.0 1.6 0.00 0.00 0.00 59 1013.7
20260831214956 32 32 0.0 1.6 0.00 0.00 0.00 59 1013.7
20260831214721 32 32 0.0 1.6 0.00 0.00 0.00 57 1013.7
20260831213957 33 33 0.0 1.6 0.00 0.00 0.00 58 1013.6
20260831213716 33 32 0.0 1.6 0.00 0.00 0.00 57 1013.6
20260831212956 33 33 0.0 1.6 0.00 0.00 0.00 55 1013.7
20260831212456 33 32 0.0 3.2 0.00 0.00 0.00 54 1013.6
20260831211957 33 33 0.0 3.2 0.00 0.00 0.00 56 1013.7
20260831211451 33 41 0.0 1.6 0.00 0.00 0.00 55 1013.6
20260831211205 33 44 1.6 3.2 0.00 0.00 0.00 56 1013.6
20260831210439 33 31 1.6 3.2 0.00 0.00 0.00 56 1013.6
20260831205933 33 31 1.6 4.8 0.00 0.00 0.00 56 1013.6
20260831205427 34 32 0.0 4.8 0.00 0.00 0.00 56 1013.6
20260831204921 34 238 0.0 1.6 0.00 0.00 0.00 55 1013.6
20260831204636 34 236 0.0 1.6 0.00 0.00 0.00 53 1013.6
20260831203909 34 264 0.0 1.6 0.00 0.00 0.00 51 1013.7
20260831203637 34 184 1.6 4.8 0.00 0.00 0.00 50 1013.7
20260831202857 35 165 1.6 4.8 0.00 0.00 0.00 51 1013.7
20260831202619 35 35 0.0 4.8 0.00 0.00 0.00 52 1013.6
20260831202100 35 25 1.6 4.8 0.00 0.00 0.00 50 1013.6
20260831201339 35 40 0.0 3.2 0.00 0.00 0.00 50 1013.7
20260831200833 35 27 0.0 3.2 0.00 0.00 0.00 52 1013.7
20260831200326 35 217 0.0 3.2 0.00 0.00 0.00 51 1013.7
20260831195821 35 32 1.6 6.4 0.00 0.00 0.00 51 1013.8
20260831195315 35 32 1.6 6.4 0.00 0.00 0.00 50 1013.8
20260831195027 35 204 1.6 8.0 0.00 0.00 0.00 49 1013.8
20260831194303 35 32 1.6 8.0 0.00 0.00 0.00 51 1013.8
20260831193756 35 189 1.6 6.4 0.00 0.00 0.00 49 1013.8
20260831193512 35 153 1.6 6.4 0.00 0.00 0.00 51 1013.9
20260831192745 34 34 1.6 8.0 0.00 0.00 0.00 56 1013.9
20260831192239 34 23 1.6 8.0 0.00 0.00 0.00 53 1013.9
20260831191954 35 269 1.6 4.8 0.00 0.00 0.00 53 1014.0
20260831191227 35 30 0.0 4.8 0.00 0.00 0.00 53 1014.0
20260831190721 34 36 1.6 4.8 0.00 0.00 0.00 54 1014.1
20260831190215 34 24 1.6 4.8 0.00 0.00 0.00 53 1014.2
20260831185937 34 35 1.6 4.8 0.00 0.00 0.00 51 1014.2
20260831185203 35 27 1.6 4.8 0.00 0.00 0.00 51 1014.3
20260831184657 35 38 0.0 4.8 0.00 0.00 0.00 53 1014.3
20260831184151 34 29 0.0 4.8 0.00 0.00 0.00 54 1014.3
20260831183645 34 28 1.6 6.4 0.00 0.00 0.00 54 1014.3
20260831183139 34 41 1.6 6.4 0.00 0.00 0.00 54 1014.4
20260831182850 34 222 0.0 6.4 0.00 0.00 0.00 53 1014.4
20260831182127 34 39 1.6 4.8 0.00 0.00 0.00 55 1014.4
20260831182104 34 34 1.6 4.8 0.00 0.00 0.00 54 1014.5
20260831181115 34 51 1.6 4.8 0.00 0.00 0.00 54 1014.6
20260831180609 34 174 1.6 4.8 0.00 0.00 0.00 54 1014.6
20260831175558 34 101 1.6 3.2 0.00 0.00 0.00 55 1014.6
20260831175058 34 205 0.0 3.2 0.00 0.00 0.00 56 1014.6
20260831174557 33 40 0.0 4.8 0.00 0.00 0.00 57 1014.7
20260831174054 33 218 0.0 4.8 0.00 0.00 0.00 56 1014.7
20260831173554 33 61 0.0 1.6 0.00 0.00 0.00 57 1014.8
20260831173055 33 50 1.6 6.4 0.00 0.00 0.00 58 1014.8
20260831172552 33 63 1.6 6.4 0.00 0.00 0.00 58 1014.9
20260831172052 33 46 0.0 6.4 0.00 0.00 0.00 59 1014.9
20260831171814 33 305 0.0 3.2 0.00 0.00 0.00 60 1014.9
20260831171050 33 48 0.0 3.2 0.00 0.00 0.00 61 1014.9
20260831170550 33 54 0.0 3.2 0.00 0.00 0.00 61 1014.9
20260831170305 33 188 0.0 4.8 0.00 0.00 0.00 63 1014.9
20260831165547 32 191 0.0 4.8 0.00 0.00 0.00 63 1014.8
20260831165047 32 70 0.0 3.2 0.00 0.00 0.00 65 1014.9
20260831164546 32 240 0.0 4.8 0.00 0.00 0.00 63 1015.1
20260831164046 32 101 1.6 4.8 0.00 0.00 0.00 65 1015.1
20260831163545 31 51 1.6 4.8 0.00 0.00 0.00 66 1015.1
20260831163041 31 323 0.0 4.8 0.00 0.00 0.00 66 1015.2
20260831162542 31 101 1.6 3.2 0.00 0.00 0.00 65 1015.2
20260831162039 31 213 1.6 3.2 0.00 0.00 0.00 67 1015.2
20260831161533 30 155 1.6 3.2 0.00 0.00 0.00 67 1015.4
20260831161027 30 37 0.0 3.2 0.00 0.00 0.00 69 1015.3
20260831160521 30 177 0.0 1.6 0.00 0.00 0.00 69 1015.3
20260831160503 30 34 1.6 3.2 0.00 0.00 0.00 71 1015.3
20260831155509 29 34 1.6 4.8 0.00 0.00 0.00 70 1015.4
20260831155003 29 34 0.0 4.8 0.00 0.00 0.00 74 1015.3
20260831154457 29 46 0.0 3.2 0.00 0.00 0.00 75 1015.4
20260831153951 28 29 0.0 3.2 0.00 0.00 0.00 76 1015.4
20260831153445 28 29 0.0 3.2 0.00 0.00 0.00 74 1015.3
20260831152939 28 287 0.0 1.6 0.00 0.00 0.00 76 1015.3
20260831152434 28 260 0.0 1.6 0.00 0.00 0.00 77 1015.4
20260831151928 28 259 0.0 1.6 0.00 0.00 0.00 77 1015.4
20260831151421 28 259 0.0 1.6 0.00 0.00 0.00 76 1015.3
20260831150915 28 37 0.0 3.2 0.00 0.00 0.00 78 1015.4
20260831150409 27 37 0.0 3.2 0.00 0.00 0.00 78 1015.3
20260831145903 27 30 0.0 3.2 0.00 0.00 0.00 79 1015.4
20260831145849 27 29 1.6 4.8 0.00 0.00 0.00 78 1015.4
20260831144854 27 233 1.6 4.8 0.00 0.00 0.00 79 1015.4
20260831144344 27 23 0.0 1.6 0.00 0.00 0.00 80 1015.4
20260831143839 27 334 0.0 1.6 0.00 0.00 0.00 80 1015.4
20260831143333 27 60 0.0 4.8 0.00 0.00 0.00 80 1015.4
20260831142830 27 163 0.0 4.8 0.00 0.00 0.00 80 1015.5
20260831142329 27 25 0.0 3.2 0.00 0.00 0.00 82 1015.5
20260831141828 26 6 0.0 1.6 0.00 0.00 0.00 81 1015.5
20260831141325 26 237 0.0 1.6 0.00 0.00 0.00 81 1015.5
20260831140823 26 237 0.0 1.6 0.00 0.00 0.00 81 1015.5
20260831140322 26 236 0.0 1.6 0.00 0.00 0.00 82 1015.5
20260831135821 26 257 0.0 3.2 0.00 0.00 0.00 82 1015.5
20260831135539 26 202 0.0 3.2 0.00 0.00 0.00 82 1015.5
20260831134816 26 211 0.0 4.8 0.00 0.00 0.00 82 1015.5
20260831134316 26 211 0.0 4.8 0.00 0.00 0.00 82 1015.5
20260831133816 26 199 0.0 1.6 0.00 0.00 0.00 83 1015.5
20260831133540 26 213 0.0 3.2 0.00 0.00 0.00 84 1015.4
20260831132816 26 213 0.0 3.2 0.00 0.00 0.00 83 1015.5
20260831132315 26 150 0.0 3.2 0.00 0.00 0.00 83 1015.5
20260831131816 26 122 0.0 3.2 0.00 0.00 0.00 84 1015.5
20260831131545 25 167 0.0 1.6 0.00 0.00 0.00 84 1015.3
20260831130812 25 163 0.0 1.6 0.00 0.00 0.00 84 1015.3
20260831130311 25 174 0.0 8.0 0.00 0.00 0.00 85 1015.3
20260831130031 25 177 0.0 8.0 0.00 0.00 0.00 86 1015.4
20260831125312 25 118 0.0 0.0 0.00 0.00 0.00 87 1015.4
20260831124812 25 207 0.0 0.0 0.00 0.00 0.00 88 1015.4
20260831124311 24 147 0.0 0.0 0.00 0.00 0.00 88 1015.4
20260831123813 24 147 0.0 0.0 0.00 0.00 0.00 88 1015.5
20260831123537 24 148 0.0 0.0 0.00 0.00 0.00 88 1015.6
20260831122813 24 148 0.0 0.0 0.00 0.00 0.00 89 1015.5
20260831122307 23 77 0.0 0.0 0.00 0.00 0.00 89 1015.4
20260831121808 23 30 0.0 0.0 0.00 0.00 0.00 90 1015.4
20260831121309 23 172 0.0 0.0 0.00 0.00 0.00 90 1015.3
20260831120807 23 209 0.0 0.0 0.00 0.00 0.00 91 1015.1
20260831120309 23 191 0.0 0.0 0.00 0.00 0.00 91 1015.1
20260831115808 23 193 0.0 0.0 0.00 0.00 0.00 92 1015.2
20260831115307 23 193 0.0 0.0 0.00 0.00 0.00 92 1015.2
20260831115030 22 210 0.0 0.0 0.00 0.00 0.00 92 1015.1
20260831114309 22 210 0.0 0.0 0.00 0.00 0.00 92 1015.1
20260831113805 22 210 0.0 0.0 0.00 0.00 0.00 92 1015.1
20260831113304 22 210 0.0 0.0 0.00 0.00 0.00 92 1015.0
20260831112804 22 210 0.0 0.0 0.00 0.00 0.00 92 1015.0
20260831112307 22 210 0.0 0.0 0.00 0.00 0.00 91 1014.8
20260831111804 22 210 0.0 0.0 0.00 0.00 0.00 91 1014.8
20260831111743 22 210 0.0 0.0 0.00 0.00 0.00 91 1014.8
20260831111024 22 210 0.0 0.0 0.00 0.00 0.00 91 1014.8
20260831110255 22 210 0.0 0.0 0.00 0.00 0.00 91 1014.7
20260831110022 22 210 0.0 0.0 0.00 0.00 0.00 90 1014.7
20260831105257 22 210 0.0 0.0 0.00 0.00 0.00 90 1014.7
20260831104753 22 210 0.0 0.0 0.00 0.00 0.00 90 1014.7
20260831104251 22 210 0.0 0.0 0.00 0.00 0.00 90 1014.7
20260831103751 22 210 0.0 0.0 0.00 0.00 0.00 90 1014.7
20260831103248 23 210 0.0 0.0 0.00 0.00 0.00 90 1014.7
20260831102747 23 210 0.0 0.0 0.00 0.00 0.00 90 1014.7
20260831102247 23 210 0.0 0.0 0.00 0.00 0.00 89 1014.7
20260831101746 23 210 0.0 0.0 0.00 0.00 0.00 89 1014.6
20260831101512 23 210 0.0 0.0 0.00 0.00 0.00 89 1014.5
20260831100743 23 210 0.0 0.0 0.00 0.00 0.00 89 1014.4
20260831100458 23 210 0.0 0.0 0.00 0.00 0.00 89 1014.3
20260831095731 23 210 0.0 0.0 0.00 0.00 0.00 89 1014.4
20260831095452 23 210 0.0 0.0 0.00 0.00 0.00 88 1014.4
20260831094718 23 210 0.0 0.0 0.00 0.00 0.00 88 1014.4
20260831094434 23 210 0.0 0.0 0.00 0.00 0.00 88 1014.4
20260831093707 23 210 0.0 0.0 0.00 0.00 0.00 88 1014.4
20260831093201 23 210 0.0 0.0 0.00 0.00 0.00 87 1014.4
20260831092655 23 210 0.0 3.2 0.00 0.00 0.00 87 1014.4
20260831092148 23 210 0.0 3.2 0.00 0.00 0.00 88 1014.4
20260831091643 23 198 0.0 0.0 0.00 0.00 0.00 88 1014.4
20260831091137 23 198 0.0 0.0 0.00 0.00 0.00 88 1014.4
20260831090630 23 198 0.0 0.0 0.00 0.00 0.00 88 1014.5
20260831090125 23 198 0.0 0.0 0.00 0.00 0.00 88 1014.4
20260831085619 23 198 0.0 0.0 0.00 0.00 0.00 87 1014.4
20260831085113 23 198 0.0 0.0 0.00 0.00 0.00 87 1014.4
20260831084928 23 198 0.0 0.0 0.00 0.00 0.00 87 1014.4
20260831084836 24 198 0.0 0.0 0.00 0.00 0.00 87 1014.4
20260831083555 24 198 0.0 0.0 0.00 0.00 0.00 87 1014.4
20260831083049 24 198 0.0 0.0 0.00 0.00 0.00 86 1014.4
20260831082543 24 198 0.0 0.0 0.00 0.00 0.00 86 1014.4
20260831082037 24 198 0.0 0.0 0.00 0.00 0.00 86 1014.4
20260831081531 24 198 0.0 0.0 0.00 0.00 0.00 86 1014.4
20260831081025 24 198 0.0 0.0 0.00 0.00 0.00 85 1014.4
20260831080519 24 198 0.0 0.0 0.00 0.00 0.00 85 1014.4
20260831080241 24 198 0.0 0.0 0.00 0.00 0.00 85 1014.3
20260831075507 24 198 0.0 0.0 0.00 0.00 0.00 84 1014.3
20260831075000 24 198 0.0 0.0 0.00 0.00 0.00 84 1014.3
20260831074454 24 198 0.0 0.0 0.00 0.00 0.00 84 1014.3
20260831073949 24 198 0.0 0.0 0.00 0.00 0.00 84 1014.3
20260831073708 25 198 0.0 0.0 0.00 0.00 0.00 84 1014.3
20260831072937 25 198 0.0 1.6 0.00 0.00 0.00 83 1014.4
20260831072431 25 198 0.0 1.6 0.00 0.00 0.00 83 1014.4
20260831071924 25 146 0.0 1.6 0.00 0.00 0.00 83 1014.3
20260831071418 25 146 0.0 1.6 0.00 0.00 0.00 83 1014.4
20260831070913 25 203 0.0 1.6 0.00 0.00 0.00 82 1014.5
20260831070407 25 202 0.0 4.8 0.00 0.00 0.00 82 1014.6
20260831065900 25 322 0.0 4.8 0.00 0.00 0.00 82 1014.6
20260831065354 25 191 0.0 6.4 0.00 0.00 0.00 82 1014.5
20260831064852 25 205 0.0 6.4 0.00 0.00 0.00 83 1014.5
20260831064342 25 217 0.0 1.6 0.00 0.00 0.00 83 1014.5
20260831063837 25 199 0.0 3.2 0.00 0.00 0.00 84 1014.5
20260831063331 24 169 0.0 3.2 0.00 0.00 0.00 84 1014.5
20260831063050 24 149 0.0 4.8 0.00 0.00 0.00 85 1014.6
20260831062539 24 247 0.0 4.8 0.00 0.00 0.00 85 1014.6
20260831061812 24 208 0.0 1.6 0.00 0.00 0.00 86 1014.6
20260831061530 24 208 0.0 1.6 0.00 0.00 0.00 86 1014.5
20260831061041 24 208 0.0 1.6 0.00 0.00 0.00 87 1014.7
20260831060310 23 13 0.0 1.6 0.00 0.00 0.00 87 1014.8
20260831055808 24 13 0.0 0.0 0.00 0.00 0.00 87 1014.8
20260831055307 24 13 0.0 0.0 0.00 0.00 0.00 87 1014.8
20260831054807 24 13 0.0 0.0 0.00 0.00 0.00 86 1014.8
20260831054308 24 13 0.0 0.0 0.00 0.00 0.00 86 1014.9
20260831053806 24 13 0.0 0.0 0.00 0.00 0.00 86 1014.9
20260831053307 24 13 0.0 0.0 0.00 0.00 0.00 85 1014.9
20260831052802 25 13 0.0 0.0 0.00 0.00 0.00 85 1015.1
20260831052306 25 13 0.0 0.0 0.00 0.00 0.00 85 1015.0
20260831051257 25 13 0.0 0.0 0.00 0.00 0.00 84 1015.2
20260831051016 25 13 0.0 0.0 0.00 0.00 0.00 84 1015.2
20260831050254 25 13 0.0 0.0 0.00 0.00 0.00 83 1015.2
20260831045752 25 13 0.0 0.0 0.00 0.00 0.00 83 1015.2
20260831045250 25 13 0.0 0.0 0.00 0.00 0.00 83 1015.2
20260831044749 25 13 0.0 0.0 0.00 0.00 0.00 83 1015.2
20260831044246 25 13 0.0 0.0 0.00 0.00 0.00 83 1015.2
20260831044226 25 13 0.0 0.0 0.00 0.00 0.00 83 1015.2
20260831043511 25 13 0.0 0.0 0.00 0.00 0.00 83 1015.2
20260831042738 25 13 0.0 0.0 0.00 0.00 0.00 83 1015.3
20260831042232 25 13 0.0 0.0 0.00 0.00 0.00 83 1015.3
20260831041726 25 13 0.0 0.0 0.00 0.00 0.00 83 1015.3
20260831041220 25 351 0.0 0.0 0.00 0.00 0.00 83 1015.3
20260831040713 25 275 0.0 0.0 0.00 0.00 0.00 83 1015.3
20260831040208 25 275 0.0 0.0 0.00 0.00 0.00 84 1015.3
20260831035924 25 274 0.0 0.0 0.00 0.00 0.00 84 1015.3
20260831035156 25 275 0.0 0.0 0.00 0.00 0.00 84 1015.3
20260831034650 25 274 0.0 0.0 0.00 0.00 0.00 84 1015.3
20260831034144 25 274 0.0 0.0 0.00 0.00 0.00 84 1015.4
20260831033638 25 274 0.0 0.0 0.00 0.00 0.00 84 1015.4
20260831033132 25 275 0.0 0.0 0.00 0.00 0.00 84 1015.5
20260831032626 25 275 0.0 0.0 0.00 0.00 0.00 84 1015.4
20260831032347 25 274 0.0 0.0 0.00 0.00 0.00 85 1015.5
20260831032106 25 275 0.0 0.0 0.00 0.00 0.00 86 1015.5
20260831031109 25 274 0.0 0.0 0.00 0.00 0.00 86 1015.5
20260831030602 25 274 0.0 0.0 0.00 0.00 0.00 86 1015.5
20260831030056 25 274 0.0 0.0 0.00 0.00 0.00 86 1015.5
20260831025550 25 274 0.0 1.6 0.00 0.00 0.00 86 1015.6
20260831025045 25 274 0.0 1.6 0.00 0.00 0.00 86 1015.5
20260831024538 25 289 0.0 0.0 0.00 0.00 0.00 86 1015.6
20260831024032 25 290 0.0 0.0 0.00 0.00 0.00 86 1015.5
20260831023527 25 290 0.0 0.0 0.00 0.00 0.00 86 1015.5
20260831023245 25 290 0.0 0.0 0.00 0.00 0.00 86 1015.5
20260831022515 25 290 0.0 0.0 0.00 0.00 0.00 85 1015.6
20260831022008 25 290 0.0 0.0 0.00 0.00 0.00 85 1015.6
20260831021502 25 290 0.0 0.0 0.00 0.00 0.00 85 1015.5
20260831020956 25 290 0.0 0.0 0.00 0.00 0.00 84 1015.6